MPEC 2005-J37 : COMET P/2005 E1 (TUBBIOLO)
The following Minor Planet Electronic Circular may be linked-to from your own Web pages, but must not otherwise be redistributed electronically.A form allowing access to any MPEC is at the bottom of this page.


M.P.E.C. 2005-J37 Issued 2005 May 9, 14:48 UT The Minor Planet Electronic Circulars contain information on unusual minor planets and routine data on comets. They are published on behalf of Commission 20 of the International Astronomical Union by the Minor Planet Center, Smithsonian Astrophysical Observatory, Cambridge, MA 02138, U.S.A. Supported in part by the Brinson Foundation Prepared using the Tamkin Foundation Computer Network MPC@CFA.HARVARD.EDU URL http://cfa-www.harvard.edu/iau/mpc.html ISSN 1523-6714 COMET P/2005 E1 (TUBBIOLO) Observations: PK05E010 C2005 04 27.93546 11 26 40.90 +04 05 00.8 EJ037213 PK05E010 C2005 04 27.94375 11 26 40.84 +04 05 00.9 EJ037213 PK05E010 C2005 04 27.94913 11 26 40.81 +04 05 01.0 EJ037213 PK05E010 C2005 05 09.19861 11 25 43.24 +04 00 44.4 19.8 T EJ037673 PK05E010 C2005 05 09.20602 11 25 43.22 +04 00 44.0 EJ037673 PK05E010 C2005 05 09.21285 11 25 43.20 +04 00 43.6 EJ037673 PK05E010 C2005 05 09.22731 11 25 43.17 +04 00 42.9 EJ037673 Observer details: 213 Observatorio Montcabre. Observer R. Naves. Measurer M. Campas. 0.30-m f/5.9 Schmidt-Cassegrain + CCD. 673 Table Mountain Observatory, Wrightwood. Observer J. Young. 0.6-m reflector + CCD. Orbital elements: P/2005 E1 (Tubbiolo) T 2005 Mar. 14.3163 TT MPC q 4.444624 (2000.0) P Q n 0.0507609 Peri. 170.3033 -0.9957078 -0.0922941 a 7.224095 Node 4.4188 +0.0777586 -0.8747437 e 0.384750 Incl. 5.1515 +0.0501963 -0.4757155 P 19.4 From 58 observations 2005 Mar. 3-May 9. Ephemeris: P/2005 E1 (Tubbiolo) Date TT R. A. (2000) Decl. Delta r Elong. Phase m1 m2 2005 04 30 11 26.38 +04 05.0 3.725 4.451 131.0 9.8 19.3 2005 05 10 11 25.72 +04 00.1 3.847 4.454 121.2 11.2 19.4 2005 05 20 11 26.40 +03 47.0 3.982 4.457 111.8 12.2 19.5 2005 05 30 11 28.38 +03 26.2 4.127 4.461 102.8 12.8 19.6 2005 06 09 11 31.59 +02 58.0 4.277 4.466 94.1 13.1 19.7 2005 06 19 11 35.92 +02 23.0 4.430 4.471 85.8 13.1 19.7 2005 06 29 11 41.26 +01 42.0 4.582 4.477 77.7 12.8 19.8 Brian G. Marsden (C) Copyright 2005 MPC M.P.E.C. 2005-J37


Enter an MPEC number in one of the following forms:
- 1997-B01 (the full form)
- J97B01 (the packed version of the full form)
- B01 (the abbreviated form)